Oxford, AL

2:35 PM CDT on July 24, 2016 (GMT -0500)
Anniston Metro

Weather History for KANB - March, 2014

Change the Weather History Date:

Wednesday, March 26, 2014

  Actual Average Record
Temperature  
Mean Temperature 41 °F 57 °F  
Max Temperature 55 °F 69 °F 86 °F (2007)
Min Temperature 27 °F 45 °F 21 °F (1955)
Degree Days  
Heating Degree Days 24    
Month to date heating degree days 339  
Since 1 July heating degree days 2820  
Moisture  
Dew Point 18 °F    
Average Humidity 47    
Maximum Humidity 75    
Minimum Humidity 18    
Precipitation  
Precipitation 0.00 in 0.15 in 2.54 in (1993)
Month to date precipitation 3.43 4.21  
Year to date precipitation 10.59 13.81  
Sea Level Pressure  
Sea Level Pressure 30.32 in    
Wind  
Wind Speed 4 mph (ENE)    
Max Wind Speed 15 mph    
Max Gust Speed 19 mph    
Visibility 10 miles    
Events      
T = Trace of Precipitation, MM = Missing Value Source: NWS Daily Summary

Daily Weather History Graph

Daily Weather History Graph

Search for Another Location

Airport or City:

Trip Planner

Search our weather history database for the weather conditions in past years. The results will help you decide how hot, cold, wet, or windy it might be!

Date:

Astronomy

Mar. 26, 2014 Rise Set
Actual Time 6:39 AM CDT 6:59 PM CDT
Civil Twilight 6:14 AM CDT 7:24 PM CDT
Nautical Twilight 5:45 AM CDT 7:53 PM CDT
Astronomical Twilight 5:15 AM CDT 8:23 PM CDT
Moon 3:34 AM CDT (3/26) 2:48 PM CDT (3/26)
Length of Visible Light 13h 10m
Length of Day
12h 20m
Waning Crescent, 21% of the Moon is Illuminated
Mar 26
Waning Crescent
Mar 30
New
Apr 7
First Quarter
Apr 15
Full
Apr 22
Last Quarter

Hourly Weather History & Observations

Time (CDT) Temp. Windchill Dew Point Humidity Pressure Visibility Wind Dir Wind Speed Gust Speed Precip Events Conditions
12:53 AM 37.0 °F 34.5 °F 14.0 °F 39% 30.29 in 10.0 mi Variable 3.5 mph - N/A   Clear
1:53 AM 35.1 °F 30.1 °F 15.1 °F 44% 30.28 in 10.0 mi Variable 5.8 mph - N/A   Clear
2:53 AM 32.0 °F - 19.9 °F 61% 30.28 in 10.0 mi Calm Calm - N/A   Clear
3:53 AM 28.9 °F 25.2 °F 21.0 °F 72% 30.29 in 10.0 mi ESE 3.5 mph - N/A   Clear
4:53 AM 28.9 °F - 19.9 °F 69% 30.31 in 10.0 mi Calm Calm - N/A   Clear
5:53 AM 28.0 °F - 21.0 °F 75% 30.33 in 10.0 mi Calm Calm - N/A   Clear
6:53 AM 28.9 °F - 21.0 °F 72% 30.36 in 10.0 mi Calm Calm - N/A   Clear
7:53 AM 33.1 °F 30.0 °F 17.1 °F 52% 30.38 in 10.0 mi NE 3.5 mph - N/A   Clear
8:53 AM 37.0 °F 33.3 °F 16.0 °F 42% 30.40 in 10.0 mi NE 4.6 mph - N/A   Clear
9:53 AM 39.9 °F 32.9 °F 15.1 °F 36% 30.41 in 10.0 mi NE 11.5 mph 16.1 mph N/A   Clear
10:53 AM 43.0 °F 38.2 °F 14.0 °F 31% 30.41 in 10.0 mi North 8.1 mph - N/A   Clear
11:53 AM 46.0 °F 41.9 °F 12.9 °F 26% 30.40 in 10.0 mi North 8.1 mph - N/A   Clear
12:53 PM 48.0 °F - 10.0 °F 22% 30.38 in 10.0 mi North 11.5 mph 18.4 mph N/A   Clear
1:53 PM 51.1 °F - 10.9 °F 20% 30.35 in 10.0 mi Variable 4.6 mph - N/A   Clear
2:53 PM 51.1 °F - 12.9 °F 22% 30.32 in 10.0 mi South 5.8 mph - N/A   Clear
3:53 PM 53.1 °F - 12.0 °F 20% 30.30 in 10.0 mi East 3.5 mph - N/A   Clear
4:53 PM 53.1 °F - 10.9 °F 19% 30.28 in 10.0 mi Variable 3.5 mph - N/A   Clear
5:53 PM 53.1 °F - 12.0 °F 20% 30.27 in 10.0 mi South 3.5 mph - N/A   Clear
6:53 PM 51.1 °F - 10.9 °F 20% 30.27 in 10.0 mi Calm Calm - N/A   Clear
7:53 PM 41.0 °F 39.0 °F 25.0 °F 53% 30.29 in 10.0 mi WSW 3.5 mph - N/A   Clear
8:53 PM 39.0 °F 36.8 °F 28.9 °F 67% 30.29 in 10.0 mi SSE 3.5 mph - N/A   Clear
9:53 PM 39.0 °F 36.8 °F 27.0 °F 62% 30.29 in 10.0 mi ENE 3.5 mph - N/A   Clear
10:53 PM 37.9 °F - 26.1 °F 62% 30.29 in 10.0 mi Calm Calm - N/A   Clear
11:53 PM 36.0 °F 33.3 °F 28.0 °F 73% 30.29 in 10.0 mi East 3.5 mph - N/A   Clear